IST,Max TemperatureF,Mean TemperatureF,Min TemperatureF,Max Dew PointF,MeanDew PointF,Min DewpointF,Max Humidity, Mean Humidity, Min Humidity, Max Sea Level PressureIn, Mean Sea Level PressureIn, Min Sea Level PressureIn, Max VisibilityMiles, Mean VisibilityMiles, Min VisibilityMiles, Max Wind SpeedMPH, Mean Wind SpeedMPH, Max Gust SpeedMPH,PrecipitationIn, CloudCover, Events, WindDirDegrees
2013-10-1,87,81,75,75,73,72,91,75,61,29.86,29.76,29.66,3,2,1,12,7,,0.00,3,,77
2013-10-2,87,82,76,78,73,70,89,73,58,29.92,29.83,29.74,2,2,1,10,7,,0.00,3,Rain,77
2013-10-3,86,80,73,76,70,68,89,73,58,29.89,29.82,29.71,2,2,1,14,8,,0.00,3,,77
2013-10-4,80,76,72,72,70,68,89,81,67,29.80,29.75,29.67,2,2,1,12,6,,0.00,5,Rain,47
2013-10-5,88,80,73,72,71,68,94,72,42,29.80,29.72,29.60,2,2,1,9,4,,0.00,5,,52
2013-10-6,92,82,73,72,71,66,94,67,37,29.83,29.76,29.66,2,2,1,7,1,,0.00,3,,101
2013-10-7,93,84,75,73,72,69,94,69,39,29.92,29.85,29.71,2,2,1,9,1,,0.00,2,,110
2013-10-8,91,84,77,75,71,68,83,67,40,29.98,29.87,29.74,2,2,1,9,3,,0.00,2,,87
2013-10-9,92,84,76,73,71,68,89,69,38,29.95,29.88,29.75,2,2,1,12,6,,0.00,2,,91
2013-10-10,91,82,74,72,70,64,89,66,34,29.98,29.89,29.56,2,2,1,10,4,,0.00,2,,97
2013-10-11,90,80,69,72,69,65,88,78,49,29.95,29.89,29.77,2,2,1,15,3,,0.08,3,Rain-Thunderstorm,90
2013-10-12,86,78,71,72,70,68,94,83,55,29.89,29.82,29.71,2,2,1,12,5,,0.00,4,,79
2013-10-13,88,80,71,73,71,70,100,75,54,29.89,29.81,29.70,2,2,1,7,3,,0.00,3,Thunderstorm,80
2013-10-14,93,84,74,73,70,66,89,69,41,29.89,29.80,29.69,2,2,1,8,2,,0.00,3,,229
2013-10-15,91,82,72,72,67,59,94,65,27,29.92,29.84,29.74,2,2,1,7,1,,0.00,2,,330
2013-10-16,94,82,70,68,64,58,78,56,22,29.95,29.86,29.72,2,2,1,7,2,,0.00,2,,290
2013-10-17,96,84,73,66,62,55,73,49,19,29.98,29.89,29.80,2,2,1,12,2,,0.00,3,,310
2013-10-18,95,84,74,64,60,55,65,43,23,29.98,29.90,29.78,3,2,1,9,4,,0.00,3,,25
2013-10-19,93,82,70,64,59,45,65,47,19,30.01,29.92,29.80,2,2,1,7,1,,0.00,2,,80
2013-10-20,93,80,68,61,55,45,64,44,13,29.98,29.90,29.79,2,2,1,6,1,,0.00,1,,99
2013-10-21,93,80,66,59,50,32,64,38,5,29.95,29.86,29.72,3,2,1,7,1,,0.00,,,127
2013-10-22,95,80,66,55,47,39,53,32,11,29.98,29.89,29.78,3,2,1,7,1,,0.00,,,192
2013-10-23,94,79,64,55,50,43,59,37,15,30.04,29.94,29.84,2,2,1,9,2,,0.00,,,100
2013-10-24,87,78,68,63,58,52,68,51,32,30.04,29.95,29.83,2,1,1,8,3,,0.00,,,85
2013-10-25,88,78,69,61,57,52,69,51,22,30.01,29.91,29.79,2,1,1,9,1,,0.00,,,77
2013-10-26,89,79,69,62,53,41,60,42,14,29.98,29.90,29.80,2,1,1,7,2,,0.00,,,76
2013-10-27,89,76,64,60,51,43,68,43,13,29.98,29.90,29.78,2,1,1,7,2,,0.00,1,,33
2013-10-28,91,78,64,57,47,36,68,37,10,29.95,29.89,29.76,2,2,1,12,2,,0.00,,,265
2013-10-29,92,76,60,53,47,43,56,36,12,29.98,29.91,29.80,2,2,1,9,2,,0.00,,,294
2013-10-30,91,78,65,72,52,46,74,41,14,30.06,29.96,29.86,2,1,1,9,2,,0.00,1,,210
2013-10-31,91,78,66,59,54,50,64,44,17,30.04,29.97,29.88,2,1,1,6,1,,0.00,1,,-1